Aérodrome :
LOGIN :

S'inscrire | Disclaimer

   EN    FR    IT 

 










Légende :    VFR   VFR Marginal   IFR   IFR Intensif   IFR Très Intensif
Visi : 
Plafond : 
>= 8 km
>= 3000ft
5 à 8 km
1000 à 3000 ft
1500m à 5 km
500 à 1000 ft
800 à 1500m
200 à 500 ft
< 800m
< 200 ft
Symboles :   Orages  Brouillard  Fortes neiges  Fortes précipitations  Vent > 20 kt
SIGMETs :   Divers  Orages  Givrage  Turbulence  Onde Orograph.  Cendres Volcan.







- Altitude de l'aérodrome : 374 ft
- Code IATA : LIS


LPPT - Lisboa Portela

DERNIER METAR :
  • 250430Z 33016KT 9999 FEW008 14/11 Q1016

METARs EXPIRÉS :
  • 250400Z 33017KT 9999 FEW012 14/11 Q1015
  • 250330Z 34022KT 9999 FEW010 14/11 Q1015
  • 250300Z 33021KT 9999 FEW012 14/11 Q1015
  • 250230Z 33018KT 9999 FEW012 14/11 Q1015
  • 250200Z 33019KT 9999 FEW012 14/12 Q1016

TAF TAF LPPT
Valide du 25 à 00h jusqu'au 26 à 06h UTC


242300Z 2500/2606 33015KT 9999 SCT012
PROB40
TEMPO 2500/2524 33020G33KT
TEMPO 2503/2508 BKN010
BECMG 2509/2512 CAVOK
Pas de NOTAMs connus pour ce terrain.



MET'MAP, la Météo Aéronautique d'un coup d'oeil ! - Copyright ORBIFLY Décembre 2007 - Disclaimer

ORBIFLY MET'MAP TEAM :

Programmation & Développement : Alexandra Zaïnal
Conception & Développement : Baudouin d'Aumeries
Co-Programmation & Développement : Marc-Olivier Méhu
Soutien technique & logistique : Manuel Goepfert

Contact : metmap@orbifly.com




SOURCES & CREDITS :

   NOAA